SCP
0 0 0 0 0 0 0 0 0 0 0 0 0 0 0 0 0 0 0 0 0 0 0 0 0 0 0 0 0 0 0 0 0 0 0 0 0 0 -0 -0 0 0 0 0 0 0 0 0 0 0 0 0 0 0
0 0 0 0 0 0 0 0 0 0 0 0 0 0 0 0 0 0 0 0 0 0 0 0 0 0 0 0 0 0 0 0 0 0 0 0 0 0 -0 -0 0 0 0 0 0 0 0 0 0 0 0 0 0 0
0 0 -0 0 0 0 0 -0 0 0 0 0 0 0 0 0 0 0 0 0 0 0 0 0 0 0 0 0 0 0 0 0 0 0 0 0 0 0 0 0 0 0 0 0 0 0 0 0 0 0 -0 0 0 0
-0 0 0 0 0 0 0 0 0 0 0 -0 0 0 0 0 0 0 0 0 0 0 0 0 0 0 0 0 0 0 0 0 0 0 0 0 0 0 0 0 0 0 0 0 0 0 0 0 0 0 0 0 0 0
0 0 0 0 0 0 -0 -0 0 0 0 -0 0 0 0 0 0 0 0 0 0 0 0 0 0 0 0 0 0 0 0 0 0 0 0 0 0 0 0 0 0 0 0 0 0 -0 0 -0 0 0 0 0 0 0
0 0 0 -0 -0 0 -0 -0 0 -0 -0 0 0 0 0 0 0 0 0 0 0 0 0 0 0 0 0 0 0 0 0 0 0 0 0 0 0 0 0 0 0 0 0 0 0 0 0 0 0 0 0 0 0 0
0 0 0 0 0 0 0 0 0 0 0 0 0 0 0 0 0 0 0 0 0 0 0 0 0 0 0 0 0 0 0 0 0 0 0 0 0 0 0 0 0 0 0 -0 -0 0 0 0 0 0 0 0 0 0
0 0 0 -0 0 0 0 0 0 0 0 0 -0 -0 0 0 0 0 0 0 0 0 0 0 0 0 0 0 0 0 0 0 0 0 0 0 0 0 0 0 0 0 0 0 0 0 0 0 0 0 0 0 0 0
0 0 0 0 0 0 0 0 0 0 0 0 0 0 0 0 0 0 0 0 0 0 0 0 0 0 0 0 0 0 0 0 0 0 0 0 0 0 0 0 0 0 0 0 0 0 0 0 0 0 0 0 0 0
-0 0 0 0 0 0 0 0 0 0 0 0 0 0 0 0 0 0 0 0 0 0 0 0 0 0 0 0 0 0 0 0 0 0 0 0 0 0 0 0 0 0 0 0 0 0 0 0 0 0 0 0 0 0
-0 -0 -0 0 0 0 0 0 0 0 0 0 0 0 0 0 0 0 0 0 0 0 0 0 0 0 0 0 0 0 0 0 0 0 0 0 0 0 0 0 0 0 0 0 0 0 0 0 0 0 0 0 0 0
-0 -0 -0 0 0 0 0 0 0 0 0 0 0 0 0 0 0 0 0 0 0 0 0 0 0 0 0 0 0 0 0 0 0 0 0 0 0 0 0 0 0 0 0 0 0 0 0 0 0 0 0 0 0 0
-0 0 0 0 0 0 0 0 0 0 0 0 0 0 0 0 0 0 0 0 0 0 0 0 0 0 0 0 0 -0 -0 -0 0 0 0 0 0 0 0 0 0 0 0 0 0 0 0 0 0 0 0 0 0 0
0 0 0 -0 0 0 0 0 0 0 0 0 0 0 0 0 0 0 0 0 0 0 0 0 0 0 0 0 0 -0 0 0 -0 -0 0 0 0 0 0 0 0 0 0 0 0 0 0 0 0 0 0 0 0 0
0 0 0 -0 -0 -0 -0 -0 -0 0 0 0 0 0 0 0 0 0 0 0 0 0 0 0 0 -0 0 0 0 0 0 0 0 0 0 0 0 0 0 0 0 0 0 0 0 0 0 0 0 0 0 0 0 0
-0 0 0 0 -0 0 0 0 0 0 0 0 0 0 0 0 0 0 0 0 0 0 0 0 0 0 0 0 0 0 0 0 0 0 0 0 0 0 0 0 0 0 0 0 0 0 0 0 0 0 0 0 0 0
0 -0 0 0 0 0 0 0 0 0 -0 -0 -0 0 0 0 0 0 0 0 0 0 0 0 0 0 0 0 0 0 0 0 0 0 0 0 0 0 0 0 0 0 0 0 0 0 0 0 0 0 0 0 0 0
-0 -0 0 0 -0 -0 0 -0 -0 -0 0 0 0 0 0 0 0 0 0 0 0 0 0 0 0 0 0 0 0 0 0 0 0 0 0 0 0 0 0 0 0 0 0 0 0 0 0 0 0 0 0 0 0 0
0 0 0 0 0 0 0 0 0 0 0 0 0 0 0 0 0 0 0 0 0 0 0 -0 -0 -0 -0 0 0 0 0 0 0 0 -0 -0 -0 0 0 0 0 0 0 0 0 0 0 0 0 0 0 0 0 0
0 0 0 0 0 0 0 0 0 0 0 0 0 0 0 0 0 0 0 0 0 0 -0 0 0 0 0 -0 -0 -0 0 0 0 0 0 0 0 0 0 0 0 0 0 0 0 0 0 0 0 0 0 0 0 0
0 0 0 0 0 0 0 0 0 0 0 0 0 0 0 0 0 0 0 0 0 0 0 -0 0 -0 -0 -0 -0 0 0 0 0 0 0 0 0 0 0 0 0 0 0 0 0 0 0 0 0 0 0 0 0 0
0 0 0 0 0 0 0 0 0 0 0 0 0 0 0 0 0 0 0 0 0 0 0 0 0 0 0 0 0 0 0 0 0 0 0 0 0 0 0 0 0 0 0 0 0 0 0 0 0 0 0 0 0 0
0 0 0 0 0 0 0 0 0 0 0 0 0 0 0 0 0 -0 0 0 0 -0 -0 0 0 0 0 0 0 0 0 0 0 0 0 0 0 0 0 0 0 0 0 0 0 0 0 0 0 0 0 0 0 0
0 0 0 0 0 0 0 0 0 0 0 -0 -0 -0 -0 -0 -0 -0 0 0 0 0 0 0 0 0 0 0 0 0 0 0 0 0 0 0 0 0 0 0 0 0 0 0 0 0 0 0 0 0 0 0 0 0
-0 0 0 0 -0 -0 -0 -0 -0 -0 -0 -0 -0 -0 -0 -0 0 0 -0 -0 0 0 0 0 0 0 0 0 0 0 0 0 0 0 0 0 0 0 0 0 0 0 0 0 0 0 0 0 0 0 0 0 0 0
-0 0 0 -0 -0 -0 -0 -0 -0 -0 -0 0 -0 0 -0 0 0 0 0 0 0 0 0 0 0 0 0 0 0 0 0 0 0 0 0 0 0 0 0 0 0 0 0 0 0 0 0 0 0 0 0 0 0 0
-0 -0 -0 0 -0 0 -0 -0 -0 0 0 0 0 0 0 0 0 0 0 0 0 0 0 0 0 0 0 0 0 0 0 0 0 0 0 0 0 0 0 0 0 0 0 0 0 0 0 0 0 0 0 0 0 0
0 0 0 0 0 -0 -0 -0 0 0 0 0 0 0 0 0 0 0 0 0 0 0 0 0 0 0 0 0 0 0 0 0 0 0 0 0 0 0 0 0 0 0 0 0 0 0 0 0 0 0 0 0 0 0
0 0 0 0 0 -0 -0 0 0 0 0 0 0 0 0 0 0 0 0 0 0 0 0 0 0 0 0 0 0 0 0 0 0 0 0 0 0 0 0 0 0 0 0 0 0 0 0 0 0 0 0 0 0 0
0 0 0 0 0 0 0 0 0 0 0 0 0 0 0 0 0 0 0 0 0 0 0 0 0 0 0 0 0 0 0 0 0 0 0 0 0 0 0 0 0 0 0 0 0 0 0 0 0 0 0 0 0 0
0 0 0 0 0 0 0 0 0 0 0 0 0 0 0 0 0 0 0 0 0 0 0 0 0 0 0 0 0 0 0 0 0 0 0 0 0 0 0 0 0 0 0 0 0 0 0 0 0 0 0 0 0 0
0 0 0 0 0 0 0 0 0 0 0 0 0 0 0 0 0 0 0 0 0 0 0 0 0 0 0 0 0 0 0 0 0 0 0 0 0 0 0 0 0 0 0 0 0 0 0 0 0 0 0 0 0 0
0 0 0 0 0 0 0 0 0 0 0 0 0 0 0 0 0 0 0 0 0 0 0 0 0 0 0 0 0 0 0 0 0 0 0 0 0 0 0 0 0 0 0 0 0 0 0 0 0 0 0 0 0 0
Wind_Speed_500mb
65 68 58 52 50 52 58 64 65 67 70 83 94 96 99 96 97 93 62 70 86 13 30 54 29 23 44 45 18 9 16 23 6 16 9 9 8 20 12 13 14 15 9 6 7 6 14 18 11 23 8 45 61 57
59 39 39 41 42 47 52 60 67 69 81 76 72 84 98 101 93 92 59 53 69 44 12 43 50 39 48 37 33 26 12 8 20 6 4 3 4 8 14 7 34 23 12 12 17 13 14 28 11 32 24 22 9 16
37 31 37 38 38 39 47 43 47 46 71 74 73 76 82 93 99 95 64 54 61 42 29 23 31 50 43 46 35 7 21 33 23 27 9 3 10 9 12 21 11 11 10 9 7 10 21 50 53 50 45 50 39 26
25 28 27 28 25 33 34 25 31 36 52 71 78 76 81 85 95 93 73 62 63 24 7 9 22 41 39 25 47 23 35 36 16 42 9 8 3 8 8 9 10 11 18 14 6 10 8 23 39 28 49 52 37 50
22 26 21 25 30 42 37 23 39 34 35 64 83 79 80 84 93 94 78 73 57 28 9 16 22 29 29 29 39 32 39 38 4 4 4 3 7 3 6 2 9 9 13 9 10 20 21 34 37 34 30 42 44 60
23 24 33 35 31 37 44 61 69 66 70 74 73 76 76 91 99 78 25 70 32 15 8 5 15 28 27 26 30 35 28 16 8 7 6 10 17 22 4 7 10 31 28 20 8 15 11 2 5 8 15 28 38 38
23 23 28 40 51 50 58 66 73 70 70 73 70 83 89 98 85 38 19 37 56 18 4 5 4 18 22 20 20 16 23 15 9 8 10 4 17 27 5 2 30 51 48 33 33 20 8 13 3 7 8 14 20 27
28 29 37 42 48 61 62 67 68 75 88 90 91 88 78 63 48 40 44 59 34 10 8 5 2 8 25 11 4 12 12 22 12 8 4 6 9 7 5 23 46 59 43 43 44 27 13 11 11 12 15 23 24 24
46 40 37 49 56 62 68 75 82 88 89 92 84 78 63 42 19 40 48 38 23 14 5 5 6 6 6 7 12 12 18 4 21 7 6 6 2 8 18 31 36 40 38 41 29 31 26 27 23 17 18 16 15 15
45 43 50 53 61 65 77 76 81 87 81 73 49 15 14 31 65 56 19 9 6 3 5 3 11 5 6 5 4 4 10 6 5 9 24 5 6 17 34 34 30 32 33 33 32 43 36 31 26 21 25 20 15 17
57 77 76 78 88 94 89 83 76 70 61 25 14 16 53 43 13 9 9 6 4 3 5 5 8 7 5 5 3 3 3 1 4 6 11 3 6 20 43 32 28 22 18 18 14 14 17 17 17 18 22 21 18 17
47 62 67 64 58 55 52 23 37 42 7 11 34 33 22 6 7 9 5 3 2 1 5 3 6 11 9 7 5 3 0 3 5 10 8 6 7 29 30 31 32 25 22 22 20 20 19 19 21 21 24 25 24 26
56 62 56 40 36 36 31 33 46 59 42 20 12 8 3 10 10 8 5 4 4 8 16 11 3 8 7 3 3 3 2 2 6 7 7 6 24 28 28 28 32 33 33 35 37 36 35 39 36 36 40 38 36 39
47 39 32 31 26 27 28 22 19 18 12 13 9 11 8 9 9 8 7 5 9 12 22 14 6 4 4 4 1 4 6 6 8 7 7 10 31 36 38 33 41 47 50 53 53 53 56 57 57 55 54 52 54 58
35 26 26 28 32 27 22 20 15 11 16 17 16 11 11 11 21 19 21 14 15 20 14 3 9 9 7 7 8 7 8 10 12 7 3 25 38 45 46 45 48 53 58 63 62 66 67 67 69 69 64 64 64 63
37 38 40 32 25 18 18 14 23 24 15 14 20 10 27 8 11 20 21 14 20 24 7 9 6 7 9 6 10 12 7 7 4 5 24 33 42 47 50 54 60 62 65 67 68 69 68 68 69 68 65 64 61 59
26 31 28 37 43 22 10 18 21 21 15 11 8 33 22 6 12 21 23 29 23 13 6 6 10 8 6 7 7 7 6 8 22 33 39 45 49 51 53 57 61 64 67 68 70 70 68 64 62 62 63 55 53 50
20 16 23 22 10 38 53 26 17 18 15 17 8 32 30 30 31 23 31 26 11 9 10 8 11 13 9 7 5 7 23 41 48 44 45 44 47 51 54 56 54 55 57 57 57 57 57 57 58 55 50 43 43 41
9 7 11 18 27 14 13 17 18 12 13 11 34 36 30 39 53 43 39 35 42 31 20 13 11 7 7 11 22 32 33 35 40 48 52 49 47 46 45 47 49 51 52 51 51 52 49 46 44 43 43 36 40 35
1 3 9 14 16 11 13 13 15 18 7 18 32 46 52 40 44 62 63 46 40 19 17 11 9 25 28 43 42 44 45 43 42 45 46 41 40 41 42 41 41 39 41 40 42 40 39 40 39 33 29 27 27 31
4 19 25 38 42 25 15 11 13 14 21 16 32 27 27 53 69 68 62 61 51 18 13 31 46 52 43 45 50 50 48 42 47 45 43 45 36 38 38 37 35 35 37 38 38 36 35 36 28 25 25 25 19 16
15 13 13 17 14 13 17 23 17 18 15 24 25 15 12 16 24 38 52 43 27 41 38 46 49 52 55 53 48 46 43 43 40 39 35 33 37 37 38 35 33 36 35 33 30 28 29 21 18 17 19 21 18 15
4 10 12 13 12 13 7 10 9 8 7 6 8 9 9 11 15 20 16 26 25 40 44 46 47 48 51 48 47 42 37 39 39 34 30 29 27 25 26 27 26 27 26 23 17 18 17 14 17 14 11 9 10 11
10 11 12 11 14 7 8 8 9 8 10 7 6 7 7 9 14 14 7 11 26 28 26 31 30 32 35 40 43 36 29 30 37 36 24 22 24 25 23 20 15 17 17 10 12 9 12 11 12 16 19 10 12 10
8 18 12 11 11 10 8 6 7 9 8 8 8 7 3 7 6 6 5 9 21 27 28 27 29 29 35 34 30 28 17 13 20 24 26 27 19 12 13 15 18 13 10 10 15 15 13 13 10 11 16 18 9 10
13 22 11 7 8 9 4 6 5 6 6 7 7 6 7 7 9 8 5 23 21 22 22 18 21 27 26 16 15 18 23 9 9 15 16 9 8 10 9 4 9 11 8 7 6 4 7 10 10 9 9 15 16 13
9 9 12 16 10 13 12 18 19 12 10 8 4 5 6 9 6 6 20 16 21 16 19 23 15 13 16 14 17 20 13 7 10 15 17 18 15 10 3 2 4 5 8 6 5 3 3 3 4 7 10 13 15 15
15 16 10 16 20 33 9 8 10 10 6 13 8 10 6 5 4 8 16 19 21 19 18 16 13 12 15 17 12 10 10 12 16 15 13 17 20 24 23 16 14 12 9 8 8 8 8 11 12 14 14 16 15 13
13 11 16 14 16 21 22 10 8 10 15 9 6 5 6 9 19 28 20 17 15 12 13 13 14 12 11 8 7 7 5 5 11 11 5 3 10 18 22 15 14 12 8 7 9 13 14 12 14 11 14 19 19 20
11 11 13 18 10 10 18 19 24 27 24 24 24 47 46 36 27 22 21 17 16 13 12 15 11 9 7 6 11 8 8 7 4 2 6 9 11 15 16 14 17 15 14 13 12 11 13 14 12 14 14 18 26 33
11 13 15 16 13 20 41 43 43 42 40 35 24 38 26 21 23 19 17 14 10 7 10 15 12 12 11 6 8 13 10 8 9 7 7 8 8 12 16 19 20 20 16 17 18 18 19 19 20 21 21 23 27 32
14 11 15 9 10 25 24 3 19 24 19 17 14 23 19 11 7 8 15 19 13 11 8 5 7 3 5 7 7 9 11 12 9 9 9 10 11 14 17 19 19 19 19 20 22 21 21 22 24 26 30 32 34 36
41 44 37 22 15 15 14 12 8 9 11 7 8 8 6 7 7 9 22 18 15 18 15 13 9 11 8 7 7 10 8 9 12 14 12 12 13 16 18 18 17 18 19 20 21 23 23 24 26 29 34 38 40 40
Wind_Direction_500mb
299 296 293 286 278 272 268 264 256 247 241 233 230 230 219 215 214 213 213 218 217 274 216 206 185 198 199 214 213 204 217 229 164 206 186 197 171 213 218 211 193 266 140 156 114 294 247 30 334 179 213 272 265 259
309 303 299 299 286 278 274 267 259 255 236 227 222 213 215 208 208 206 203 204 216 215 268 205 215 213 217 210 206 231 250 216 189 134 200 139 280 152 191 231 190 226 189 183 179 204 242 294 282 326 341 308 330 345
308 315 314 306 294 287 305 273 252 246 212 212 210 205 207 203 198 200 194 181 197 214 257 174 188 205 211 208 200 139 264 252 185 175 148 257 205 165 195 228 202 245 150 185 111 260 242 274 288 312 323 324 335 323
317 322 329 345 334 320 305 270 235 219 211 207 198 199 196 196 189 189 185 189 197 177 239 175 189 186 203 220 215 203 261 266 212 179 160 153 214 261 230 214 180 209 162 191 235 268 248 248 251 317 309 296 320 314
355 355 346 340 341 345 327 258 199 182 167 169 178 179 181 186 180 182 190 196 189 193 160 136 170 192 191 225 233 238 246 246 240 139 75 231 164 309 287 90 246 229 183 162 212 216 198 231 239 207 248 243 289 297
19 29 40 31 22 37 73 102 126 133 136 143 154 163 167 175 167 163 155 200 190 113 99 131 160 175 177 192 192 211 222 229 222 158 150 191 280 192 253 225 238 231 236 250 219 303 253 261 189 206 197 212 255 292
47 44 61 59 51 77 87 108 118 123 130 140 143 144 147 156 161 162 177 195 176 123 157 91 116 175 186 170 185 202 206 213 196 159 189 226 199 254 134 213 343 360 345 11 14 1 348 33 157 353 322 300 299 298
61 74 78 73 82 86 99 106 113 119 124 131 132 134 139 123 134 107 119 130 138 152 86 97 302 84 178 160 183 184 179 186 190 171 59 197 249 188 204 354 354 2 12 13 7 22 8 356 343 345 329 321 329 331
63 94 97 90 101 100 102 110 114 120 124 124 122 126 120 104 86 120 128 126 109 74 89 95 127 175 140 141 202 194 187 151 189 142 149 23 258 52 356 346 351 352 352 340 359 18 25 34 29 20 358 359 27 46
74 87 103 108 107 109 110 113 115 123 125 109 111 89 67 106 121 126 77 64 68 352 66 150 126 103 90 74 334 343 210 205 170 205 117 137 59 34 12 356 353 343 352 4 14 18 13 21 34 67 64 54 51 62
89 105 119 125 124 124 123 119 122 120 123 95 50 76 115 124 122 78 107 100 126 12 208 208 121 133 127 128 175 245 289 0 154 233 129 87 39 6 359 1 349 359 8 15 33 36 33 38 71 72 67 72 77 90
98 101 101 113 113 121 120 80 117 135 161 108 122 121 127 76 81 91 84 62 86 355 30 83 111 108 141 153 121 193 185 58 207 360 78 71 22 8 6 8 11 27 41 48 48 57 61 68 72 86 89 86 88 98
116 109 105 90 73 68 66 92 107 107 103 82 75 72 18 5 61 34 113 85 71 357 358 3 77 103 119 112 69 93 182 150 121 56 74 46 6 23 31 41 48 60 72 77 77 81 85 88 89 88 90 92 101 101
119 105 79 68 70 89 98 92 115 127 74 63 50 41 38 30 46 34 354 338 345 334 335 330 66 79 113 92 49 72 42 3 65 53 64 3 25 42 58 63 71 70 79 82 84 85 84 85 85 87 91 95 97 96
118 102 82 76 50 106 70 57 76 181 54 51 31 41 48 16 43 8 357 343 357 336 338 132 68 57 28 56 12 30 69 55 37 50 42 27 49 57 62 68 70 73 79 84 89 90 91 90 89 88 88 90 93 96
93 86 70 56 49 55 52 60 65 75 60 57 41 31 353 34 357 360 358 336 336 347 1 47 63 76 56 38 47 10 73 52 68 64 59 67 75 83 81 78 78 82 85 87 88 90 91 92 93 95 95 93 94 95
106 88 55 53 40 41 67 62 47 53 54 50 55 27 7 2 341 344 4 334 345 359 43 42 49 9 58 56 53 28 44 81 81 81 80 88 84 86 93 94 94 94 92 89 86 85 86 88 88 85 84 86 87 87
119 78 29 25 38 57 62 53 76 62 57 20 35 13 36 32 9 21 20 28 68 67 46 56 45 35 38 46 58 99 95 91 90 90 89 96 100 100 100 97 95 96 95 95 96 97 97 93 89 88 88 81 81 81
149 126 27 24 46 57 60 45 58 84 66 67 51 44 45 42 42 53 50 56 77 94 95 68 56 37 43 34 112 110 106 100 91 84 89 89 87 86 88 93 95 94 91 88 86 83 84 85 89 93 91 90 86 76
4 22 328 339 59 68 79 71 75 94 106 134 91 67 54 44 44 46 46 47 56 61 54 47 45 52 58 52 99 112 110 106 99 89 79 79 84 87 83 83 82 85 88 89 90 89 84 79 75 75 78 90 91 82
97 86 98 81 62 68 79 79 76 108 126 106 109 82 86 53 47 44 44 49 52 46 70 75 75 78 82 85 93 105 107 109 97 95 95 88 82 83 83 82 84 84 81 78 77 73 73 72 69 66 67 66 68 76
86 82 68 52 73 70 64 49 92 96 90 108 68 61 58 44 42 43 46 48 62 57 69 78 79 82 81 80 83 90 98 103 103 103 103 104 95 90 83 76 72 72 67 61 61 69 70 64 68 93 84 66 54 60
84 42 58 48 80 69 64 51 66 54 85 89 61 48 37 47 54 42 64 34 78 82 86 87 86 84 85 88 90 91 91 92 88 86 89 90 90 93 95 91 84 72 63 59 50 59 66 53 46 56 95 118 92 67
42 55 42 48 60 99 83 49 69 66 69 58 66 67 34 77 85 70 67 59 54 80 104 98 95 99 100 95 86 86 94 103 106 102 77 58 68 66 61 65 79 93 88 58 50 63 71 90 57 39 50 98 102 97
83 14 33 37 55 71 65 42 29 53 58 47 67 52 29 72 74 79 90 101 84 83 92 100 94 91 97 96 93 91 85 95 123 119 111 106 97 60 48 43 46 73 113 111 61 44 43 57 78 32 32 43 43 44
73 22 43 41 21 76 72 85 79 84 94 69 67 79 46 66 65 71 76 120 113 92 91 127 130 121 111 127 133 121 102 95 80 93 90 105 146 162 153 249 338 30 67 97 143 67 38 31 41 38 5 352 9 5
71 47 46 38 61 97 87 68 68 58 52 57 54 35 68 71 81 83 114 136 140 132 124 124 133 124 120 108 101 108 115 84 57 66 67 54 53 53 79 63 33 24 44 33 16 339 3 1 2 333 345 333 347 2
56 46 54 19 49 37 78 54 40 41 39 2 45 38 75 61 75 103 142 159 165 164 153 144 147 147 140 131 125 116 96 72 46 31 32 30 23 16 13 12 26 26 14 27 24 14 9 351 346 348 354 342 344 349
65 85 79 43 60 50 33 39 55 44 356 358 87 79 81 68 123 128 136 136 125 129 143 152 150 160 151 135 114 83 100 142 155 151 119 40 317 344 339 349 350 0 353 336 335 339 345 345 352 353 356 352 345 329
63 59 93 49 56 54 33 65 78 61 83 103 102 112 101 101 109 123 124 138 153 143 129 112 103 96 73 354 9 47 60 63 44 280 256 268 303 311 320 347 333 344 340 326 327 331 317 327 321 307 317 316 312 313
84 73 72 67 81 111 110 99 92 88 89 95 114 121 120 121 128 137 151 163 187 162 153 165 173 189 198 219 287 316 352 8 1 346 329 316 306 321 345 344 339 336 337 340 339 329 322 323 325 324 315 308 304 307
50 80 116 100 113 153 152 111 87 102 99 86 98 115 124 118 104 155 153 129 130 168 167 189 257 235 288 296 298 305 321 337 348 351 345 337 338 334 333 331 330 336 347 345 338 333 329 326 325 324 322 321 318 312
85 87 100 101 130 160 169 146 107 98 80 78 54 67 73 93 112 173 173 172 172 206 229 233 260 287 296 320 331 334 346 347 350 343 337 337 334 334 336 334 333 337 340 339 338 337 334 330 326 322 320 318 318 319
Wind_Speed_850mb
65 68 58 52 50 52 58 64 65 67 70 83 94 96 99 96 97 93 62 70 86 13 30 54 29 23 44 45 18 9 16 23 6 16 9 9 8 20 12 13 14 15 9 6 7 6 14 18 11 23 8 45 61 57
59 39 39 41 42 47 52 60 67 69 81 76 72 84 98 101 93 92 59 53 69 44 12 43 50 39 48 37 33 26 12 8 20 6 4 3 4 8 14 7 34 23 12 12 17 13 14 28 11 32 24 22 9 16
37 31 37 38 38 39 47 43 47 46 71 74 73 76 82 93 99 95 64 54 61 42 29 23 31 50 43 46 35 7 21 33 23 27 9 3 10 9 12 21 11 11 10 9 7 10 21 50 53 50 45 50 39 26
25 28 27 28 25 33 34 25 31 36 52 71 78 76 81 85 95 93 73 62 63 24 7 9 22 41 39 25 47 23 35 36 16 42 9 8 3 8 8 9 10 11 18 14 6 10 8 23 39 28 49 52 37 50
22 26 21 25 30 42 37 23 39 34 35 64 83 79 80 84 93 94 78 73 57 28 9 16 22 29 29 29 39 32 39 38 4 4 4 3 7 3 6 2 9 9 13 9 10 20 21 34 37 34 30 42 44 60
23 24 33 35 31 37 44 61 69 66 70 74 73 76 76 91 99 78 25 70 32 15 8 5 15 28 27 26 30 35 28 16 8 7 6 10 17 22 4 7 10 31 28 20 8 15 11 2 5 8 15 28 38 38
23 23 28 40 51 50 58 66 73 70 70 73 70 83 89 98 85 38 19 37 56 18 4 5 4 18 22 20 20 16 23 15 9 8 10 4 17 27 5 2 30 51 48 33 33 20 8 13 3 7 8 14 20 27
28 29 37 42 48 61 62 67 68 75 88 90 91 88 78 63 48 40 44 59 34 10 8 5 2 8 25 11 4 12 12 22 12 8 4 6 9 7 5 23 46 59 43 43 44 27 13 11 11 12 15 23 24 24
46 40 37 49 56 62 68 75 82 88 89 92 84 78 63 42 19 40 48 38 23 14 5 5 6 6 6 7 12 12 18 4 21 7 6 6 2 8 18 31 36 40 38 41 29 31 26 27 23 17 18 16 15 15
45 43 50 53 61 65 77 76 81 87 81 73 49 15 14 31 65 56 19 9 6 3 5 3 11 5 6 5 4 4 10 6 5 9 24 5 6 17 34 34 30 32 33 33 32 43 36 31 26 21 25 20 15 17
57 77 76 78 88 94 89 83 76 70 61 25 14 16 53 43 13 9 9 6 4 3 5 5 8 7 5 5 3 3 3 1 4 6 11 3 6 20 43 32 28 22 18 18 14 14 17 17 17 18 22 21 18 17
47 62 67 64 58 55 52 23 37 42 7 11 34 33 22 6 7 9 5 3 2 1 5 3 6 11 9 7 5 3 0 3 5 10 8 6 7 29 30 31 32 25 22 22 20 20 19 19 21 21 24 25 24 26
56 62 56 40 36 36 31 33 46 59 42 20 12 8 3 10 10 8 5 4 4 8 16 11 3 8 7 3 3 3 2 2 6 7 7 6 24 28 28 28 32 33 33 35 37 36 35 39 36 36 40 38 36 39
47 39 32 31 26 27 28 22 19 18 12 13 9 11 8 9 9 8 7 5 9 12 22 14 6 4 4 4 1 4 6 6 8 7 7 10 31 36 38 33 41 47 50 53 53 53 56 57 57 55 54 52 54 58
35 26 26 28 32 27 22 20 15 11 16 17 16 11 11 11 21 19 21 14 15 20 14 3 9 9 7 7 8 7 8 10 12 7 3 25 38 45 46 45 48 53 58 63 62 66 67 67 69 69 64 64 64 63
37 38 40 32 25 18 18 14 23 24 15 14 20 10 27 8 11 20 21 14 20 24 7 9 6 7 9 6 10 12 7 7 4 5 24 33 42 47 50 54 60 62 65 67 68 69 68 68 69 68 65 64 61 59
26 31 28 37 43 22 10 18 21 21 15 11 8 33 22 6 12 21 23 29 23 13 6 6 10 8 6 7 7 7 6 8 22 33 39 45 49 51 53 57 61 64 67 68 70 70 68 64 62 62 63 55 53 50
20 16 23 22 10 38 53 26 17 18 15 17 8 32 30 30 31 23 31 26 11 9 10 8 11 13 9 7 5 7 23 41 48 44 45 44 47 51 54 56 54 55 57 57 57 57 57 57 58 55 50 43 43 41
9 7 11 18 27 14 13 17 18 12 13 11 34 36 30 39 53 43 39 35 42 31 20 13 11 7 7 11 22 32 33 35 40 48 52 49 47 46 45 47 49 51 52 51 51 52 49 46 44 43 43 36 40 35
1 3 9 14 16 11 13 13 15 18 7 18 32 46 52 40 44 62 63 46 40 19 17 11 9 25 28 43 42 44 45 43 42 45 46 41 40 41 42 41 41 39 41 40 42 40 39 40 39 33 29 27 27 31
4 19 25 38 42 25 15 11 13 14 21 16 32 27 27 53 69 68 62 61 51 18 13 31 46 52 43 45 50 50 48 42 47 45 43 45 36 38 38 37 35 35 37 38 38 36 35 36 28 25 25 25 19 16
15 13 13 17 14 13 17 23 17 18 15 24 25 15 12 16 24 38 52 43 27 41 38 46 49 52 55 53 48 46 43 43 40 39 35 33 37 37 38 35 33 36 35 33 30 28 29 21 18 17 19 21 18 15
4 10 12 13 12 13 7 10 9 8 7 6 8 9 9 11 15 20 16 26 25 40 44 46 47 48 51 48 47 42 37 39 39 34 30 29 27 25 26 27 26 27 26 23 17 18 17 14 17 14 11 9 10 11
10 11 12 11 14 7 8 8 9 8 10 7 6 7 7 9 14 14 7 11 26 28 26 31 30 32 35 40 43 36 29 30 37 36 24 22 24 25 23 20 15 17 17 10 12 9 12 11 12 16 19 10 12 10
8 18 12 11 11 10 8 6 7 9 8 8 8 7 3 7 6 6 5 9 21 27 28 27 29 29 35 34 30 28 17 13 20 24 26 27 19 12 13 15 18 13 10 10 15 15 13 13 10 11 16 18 9 10
13 22 11 7 8 9 4 6 5 6 6 7 7 6 7 7 9 8 5 23 21 22 22 18 21 27 26 16 15 18 23 9 9 15 16 9 8 10 9 4 9 11 8 7 6 4 7 10 10 9 9 15 16 13
9 9 12 16 10 13 12 18 19 12 10 8 4 5 6 9 6 6 20 16 21 16 19 23 15 13 16 14 17 20 13 7 10 15 17 18 15 10 3 2 4 5 8 6 5 3 3 3 4 7 10 13 15 15
15 16 10 16 20 33 9 8 10 10 6 13 8 10 6 5 4 8 16 19 21 19 18 16 13 12 15 17 12 10 10 12 16 15 13 17 20 24 23 16 14 12 9 8 8 8 8 11 12 14 14 16 15 13
13 11 16 14 16 21 22 10 8 10 15 9 6 5 6 9 19 28 20 17 15 12 13 13 14 12 11 8 7 7 5 5 11 11 5 3 10 18 22 15 14 12 8 7 9 13 14 12 14 11 14 19 19 20
11 11 13 18 10 10 18 19 24 27 24 24 24 47 46 36 27 22 21 17 16 13 12 15 11 9 7 6 11 8 8 7 4 2 6 9 11 15 16 14 17 15 14 13 12 11 13 14 12 14 14 18 26 33
11 13 15 16 13 20 41 43 43 42 40 35 24 38 26 21 23 19 17 14 10 7 10 15 12 12 11 6 8 13 10 8 9 7 7 8 8 12 16 19 20 20 16 17 18 18 19 19 20 21 21 23 27 32
14 11 15 9 10 25 24 3 19 24 19 17 14 23 19 11 7 8 15 19 13 11 8 5 7 3 5 7 7 9 11 12 9 9 9 10 11 14 17 19 19 19 19 20 22 21 21 22 24 26 30 32 34 36
41 44 37 22 15 15 14 12 8 9 11 7 8 8 6 7 7 9 22 18 15 18 15 13 9 11 8 7 7 10 8 9 12 14 12 12 13 16 18 18 17 18 19 20 21 23 23 24 26 29 34 38 40 40
Wind_Direction_850mb
299 296 293 286 278 272 268 264 256 247 241 233 230 230 219 215 214 213 213 218 217 274 216 206 185 198 199 214 213 204 217 229 164 206 186 197 171 213 218 211 193 266 140 156 114 294 247 30 334 179 213 272 265 259
309 303 299 299 286 278 274 267 259 255 236 227 222 213 215 208 208 206 203 204 216 215 268 205 215 213 217 210 206 231 250 216 189 134 200 139 280 152 191 231 190 226 189 183 179 204 242 294 282 326 341 308 330 345
308 315 314 306 294 287 305 273 252 246 212 212 210 205 207 203 198 200 194 181 197 214 257 174 188 205 211 208 200 139 264 252 185 175 148 257 205 165 195 228 202 245 150 185 111 260 242 274 288 312 323 324 335 323
317 322 329 345 334 320 305 270 235 219 211 207 198 199 196 196 189 189 185 189 197 177 239 175 189 186 203 220 215 203 261 266 212 179 160 153 214 261 230 214 180 209 162 191 235 268 248 248 251 317 309 296 320 314
355 355 346 340 341 345 327 258 199 182 167 169 178 179 181 186 180 182 190 196 189 193 160 136 170 192 191 225 233 238 246 246 240 139 75 231 164 309 287 90 246 229 183 162 212 216 198 231 239 207 248 243 289 297
19 29 40 31 22 37 73 102 126 133 136 143 154 163 167 175 167 163 155 200 190 113 99 131 160 175 177 192 192 211 222 229 222 158 150 191 280 192 253 225 238 231 236 250 219 303 253 261 189 206 197 212 255 292
47 44 61 59 51 77 87 108 118 123 130 140 143 144 147 156 161 162 177 195 176 123 157 91 116 175 186 170 185 202 206 213 196 159 189 226 199 254 134 213 343 360 345 11 14 1 348 33 157 353 322 300 299 298
61 74 78 73 82 86 99 106 113 119 124 131 132 134 139 123 134 107 119 130 138 152 86 97 302 84 178 160 183 184 179 186 190 171 59 197 249 188 204 354 354 2 12 13 7 22 8 356 343 345 329 321 329 331
63 94 97 90 101 100 102 110 114 120 124 124 122 126 120 104 86 120 128 126 109 74 89 95 127 175 140 141 202 194 187 151 189 142 149 23 258 52 356 346 351 352 352 340 359 18 25 34 29 20 358 359 27 46
74 87 103 108 107 109 110 113 115 123 125 109 111 89 67 106 121 126 77 64 68 352 66 150 126 103 90 74 334 343 210 205 170 205 117 137 59 34 12 356 353 343 352 4 14 18 13 21 34 67 64 54 51 62
89 105 119 125 124 124 123 119 122 120 123 95 50 76 115 124 122 78 107 100 126 12 208 208 121 133 127 128 175 245 289 0 154 233 129 87 39 6 359 1 349 359 8 15 33 36 33 38 71 72 67 72 77 90
98 101 101 113 113 121 120 80 117 135 161 108 122 121 127 76 81 91 84 62 86 355 30 83 111 108 141 153 121 193 185 58 207 360 78 71 22 8 6 8 11 27 41 48 48 57 61 68 72 86 89 86 88 98
116 109 105 90 73 68 66 92 107 107 103 82 75 72 18 5 61 34 113 85 71 357 358 3 77 103 119 112 69 93 182 150 121 56 74 46 6 23 31 41 48 60 72 77 77 81 85 88 89 88 90 92 101 101
119 105 79 68 70 89 98 92 115 127 74 63 50 41 38 30 46 34 354 338 345 334 335 330 66 79 113 92 49 72 42 3 65 53 64 3 25 42 58 63 71 70 79 82 84 85 84 85 85 87 91 95 97 96
118 102 82 76 50 106 70 57 76 181 54 51 31 41 48 16 43 8 357 343 357 336 338 132 68 57 28 56 12 30 69 55 37 50 42 27 49 57 62 68 70 73 79 84 89 90 91 90 89 88 88 90 93 96
93 86 70 56 49 55 52 60 65 75 60 57 41 31 353 34 357 360 358 336 336 347 1 47 63 76 56 38 47 10 73 52 68 64 59 67 75 83 81 78 78 82 85 87 88 90 91 92 93 95 95 93 94 95
106 88 55 53 40 41 67 62 47 53 54 50 55 27 7 2 341 344 4 334 345 359 43 42 49 9 58 56 53 28 44 81 81 81 80 88 84 86 93 94 94 94 92 89 86 85 86 88 88 85 84 86 87 87
119 78 29 25 38 57 62 53 76 62 57 20 35 13 36 32 9 21 20 28 68 67 46 56 45 35 38 46 58 99 95 91 90 90 89 96 100 100 100 97 95 96 95 95 96 97 97 93 89 88 88 81 81 81
149 126 27 24 46 57 60 45 58 84 66 67 51 44 45 42 42 53 50 56 77 94 95 68 56 37 43 34 112 110 106 100 91 84 89 89 87 86 88 93 95 94 91 88 86 83 84 85 89 93 91 90 86 76
4 22 328 339 59 68 79 71 75 94 106 134 91 67 54 44 44 46 46 47 56 61 54 47 45 52 58 52 99 112 110 106 99 89 79 79 84 87 83 83 82 85 88 89 90 89 84 79 75 75 78 90 91 82
97 86 98 81 62 68 79 79 76 108 126 106 109 82 86 53 47 44 44 49 52 46 70 75 75 78 82 85 93 105 107 109 97 95 95 88 82 83 83 82 84 84 81 78 77 73 73 72 69 66 67 66 68 76
86 82 68 52 73 70 64 49 92 96 90 108 68 61 58 44 42 43 46 48 62 57 69 78 79 82 81 80 83 90 98 103 103 103 103 104 95 90 83 76 72 72 67 61 61 69 70 64 68 93 84 66 54 60
84 42 58 48 80 69 64 51 66 54 85 89 61 48 37 47 54 42 64 34 78 82 86 87 86 84 85 88 90 91 91 92 88 86 89 90 90 93 95 91 84 72 63 59 50 59 66 53 46 56 95 118 92 67
42 55 42 48 60 99 83 49 69 66 69 58 66 67 34 77 85 70 67 59 54 80 104 98 95 99 100 95 86 86 94 103 106 102 77 58 68 66 61 65 79 93 88 58 50 63 71 90 57 39 50 98 102 97
83 14 33 37 55 71 65 42 29 53 58 47 67 52 29 72 74 79 90 101 84 83 92 100 94 91 97 96 93 91 85 95 123 119 111 106 97 60 48 43 46 73 113 111 61 44 43 57 78 32 32 43 43 44
73 22 43 41 21 76 72 85 79 84 94 69 67 79 46 66 65 71 76 120 113 92 91 127 130 121 111 127 133 121 102 95 80 93 90 105 146 162 153 249 338 30 67 97 143 67 38 31 41 38 5 352 9 5
71 47 46 38 61 97 87 68 68 58 52 57 54 35 68 71 81 83 114 136 140 132 124 124 133 124 120 108 101 108 115 84 57 66 67 54 53 53 79 63 33 24 44 33 16 339 3 1 2 333 345 333 347 2
56 46 54 19 49 37 78 54 40 41 39 2 45 38 75 61 75 103 142 159 165 164 153 144 147 147 140 131 125 116 96 72 46 31 32 30 23 16 13 12 26 26 14 27 24 14 9 351 346 348 354 342 344 349
65 85 79 43 60 50 33 39 55 44 356 358 87 79 81 68 123 128 136 136 125 129 143 152 150 160 151 135 114 83 100 142 155 151 119 40 317 344 339 349 350 0 353 336 335 339 345 345 352 353 356 352 345 329
63 59 93 49 56 54 33 65 78 61 83 103 102 112 101 101 109 123 124 138 153 143 129 112 103 96 73 354 9 47 60 63 44 280 256 268 303 311 320 347 333 344 340 326 327 331 317 327 321 307 317 316 312 313
84 73 72 67 81 111 110 99 92 88 89 95 114 121 120 121 128 137 151 163 187 162 153 165 173 189 198 219 287 316 352 8 1 346 329 316 306 321 345 344 339 336 337 340 339 329 322 323 325 324 315 308 304 307
50 80 116 100 113 153 152 111 87 102 99 86 98 115 124 118 104 155 153 129 130 168 167 189 257 235 288 296 298 305 321 337 348 351 345 337 338 334 333 331 330 336 347 345 338 333 329 326 325 324 322 321 318 312
85 87 100 101 130 160 169 146 107 98 80 78 54 67 73 93 112 173 173 172 172 206 229 233 260 287 296 320 331 334 346 347 350 343 337 337 334 334 336 334 333 337 340 339 338 337 334 330 326 322 320 318 318 319